5 kleines Gehege Affenhaus Messungen

Zurück zum Überblick

Zeitpunkt Temperatur Luftfeuchte
07.08.2020 16:37:06 32,2 C 42,0%
07.08.2020 16:30:05 31,9 C 42,0%
07.08.2020 16:23:03 31,7 C 42,0%
07.08.2020 16:16:02 31,6 C 42,0%
07.08.2020 16:09:01 31,4 C 42,0%
07.08.2020 16:02:00 31,1 C 43,0%
07.08.2020 15:55:00 30,9 C 42,0%
07.08.2020 15:47:58 30,7 C 42,0%
07.08.2020 15:40:55 30,5 C 42,0%
07.08.2020 15:33:54 30,3 C 43,0%
07.08.2020 15:26:52 30,1 C 44,0%
07.08.2020 15:19:48 29,9 C 44,0%
07.08.2020 15:12:45 29,7 C 44,0%
07.08.2020 15:05:43 29,4 C 44,0%
07.08.2020 14:58:41 29,2 C 44,0%
07.08.2020 14:51:37 29,0 C 44,0%
07.08.2020 14:44:35 28,9 C 45,0%
07.08.2020 14:37:34 28,6 C 45,0%
07.08.2020 14:30:32 28,4 C 45,0%
07.08.2020 14:23:31 28,2 C 45,0%
07.08.2020 14:16:28 28,0 C 45,0%
07.08.2020 14:09:27 27,8 C 46,0%
07.08.2020 14:02:26 27,5 C 46,0%
07.08.2020 13:55:23 27,3 C 46,0%
07.08.2020 13:48:22 27,1 C 46,0%
07.08.2020 13:41:19 26,9 C 47,0%
07.08.2020 13:34:17 26,7 C 47,0%
07.08.2020 13:27:16 26,5 C 48,0%
07.08.2020 13:20:14 26,3 C 48,0%
07.08.2020 13:13:11 26,1 C 48,0%
07.08.2020 13:06:09 25,8 C 49,0%
07.08.2020 12:59:07 25,6 C 49,0%
07.08.2020 12:52:05 25,4 C 50,0%
07.08.2020 12:45:04 25,2 C 50,0%
07.08.2020 12:38:01 25,1 C 51,0%
07.08.2020 12:30:59 24,9 C 51,0%
07.08.2020 12:23:56 24,6 C 52,0%
07.08.2020 12:16:55 24,4 C 52,0%
07.08.2020 12:09:54 24,3 C 52,0%
07.08.2020 12:02:51 24,3 C 52,0%
07.08.2020 11:55:48 24,2 C 53,0%
07.08.2020 11:48:45 24,0 C 53,0%
07.08.2020 11:41:44 24,0 C 53,0%
07.08.2020 11:34:42 23,9 C 53,0%
07.08.2020 11:27:39 23,8 C 54,0%
07.08.2020 11:20:38 23,7 C 53,0%
07.08.2020 11:13:35 23,7 C 54,0%
07.08.2020 11:06:34 23,5 C 54,0%
07.08.2020 10:59:31 23,5 C 54,0%
07.08.2020 10:52:30 23,4 C 54,0%
07.08.2020 10:45:28 23,4 C 54,0%
07.08.2020 10:38:26 23,2 C 54,0%
07.08.2020 10:31:23 23,1 C 54,0%
07.08.2020 10:24:21 23,1 C 54,0%
07.08.2020 10:17:18 23,0 C 54,0%
07.08.2020 10:10:16 22,9 C 54,0%
07.08.2020 10:03:13 22,8 C 54,0%
07.08.2020 09:56:12 22,8 C 54,0%
07.08.2020 09:49:10 22,7 C 54,0%
07.08.2020 09:42:07 22,6 C 54,0%
07.08.2020 09:35:06 22,5 C 54,0%
07.08.2020 09:28:03 22,5 C 54,0%
07.08.2020 09:21:02 22,4 C 55,0%
07.08.2020 09:14:01 22,3 C 55,0%
07.08.2020 09:06:58 22,3 C 55,0%
07.08.2020 08:59:57 22,2 C 55,0%
07.08.2020 08:52:54 22,2 C 55,0%
07.08.2020 08:45:54 22,1 C 55,0%
07.08.2020 08:38:50 22,1 C 55,0%
07.08.2020 08:31:49 22,0 C 55,0%
07.08.2020 08:24:48 22,0 C 55,0%
07.08.2020 08:17:47 21,9 C 55,0%
07.08.2020 08:10:45 21,8 C 55,0%
07.08.2020 08:03:44 21,8 C 55,0%
07.08.2020 07:56:42 21,8 C 55,0%
07.08.2020 07:49:40 21,8 C 55,0%
07.08.2020 07:42:39 21,8 C 54,0%
07.08.2020 07:35:37 21,8 C 54,0%
07.08.2020 07:28:35 21,8 C 54,0%
07.08.2020 07:21:32 21,9 C 54,0%
07.08.2020 07:14:32 21,9 C 54,0%
07.08.2020 07:07:29 21,9 C 54,0%
07.08.2020 07:00:26 22,0 C 54,0%
07.08.2020 06:53:22 22,0 C 54,0%
07.08.2020 06:46:22 22,0 C 54,0%
07.08.2020 06:39:20 22,1 C 54,0%
07.08.2020 06:32:24 22,1 C 54,0%
07.08.2020 06:25:16 22,1 C 54,0%
07.08.2020 06:18:13 22,2 C 54,0%
07.08.2020 06:11:09 22,2 C 54,0%
07.08.2020 06:04:08 22,3 C 54,0%
07.08.2020 05:57:07 22,4 C 54,0%
07.08.2020 05:50:06 22,4 C 53,0%
07.08.2020 05:43:04 22,5 C 53,0%
07.08.2020 05:36:02 22,5 C 53,0%
07.08.2020 05:28:59 22,6 C 53,0%
07.08.2020 05:21:58 22,7 C 53,0%
07.08.2020 05:15:02 22,8 C 53,0%
07.08.2020 05:00:53 22,8 C 52,0%
07.08.2020 04:53:57 22,9 C 52,0%
07.08.2020 04:25:41 23,1 C 52,0%
07.08.2020 04:18:40 23,2 C 52,0%
07.08.2020 04:11:44 23,3 C 52,0%
07.08.2020 03:43:30 23,6 C 52,0%
07.08.2020 03:36:34 23,7 C 51,0%
07.08.2020 03:15:20 23,9 C 51,0%
07.08.2020 03:08:24 24,0 C 51,0%
07.08.2020 03:01:17 24,1 C 51,0%
07.08.2020 02:54:21 24,1 C 51,0%
07.08.2020 02:40:11 24,3 C 51,0%
07.08.2020 02:33:15 24,4 C 51,0%
07.08.2020 02:19:06 24,6 C 50,0%
07.08.2020 02:12:10 24,6 C 50,0%
07.08.2020 02:05:04 24,7 C 50,0%
07.08.2020 01:58:01 24,9 C 50,0%
07.08.2020 01:51:05 24,9 C 50,0%
07.08.2020 00:40:38 26,0 C 48,0%
07.08.2020 00:33:42 26,1 C 48,0%
07.08.2020 00:26:35 26,3 C 48,0%
07.08.2020 00:19:39 26,4 C 48,0%